SCOUT A R/B, 1865

Orbit data source: Space-Track

SCOUT A R/B, 1865 is space debris in LEO originally from a launch on Wed, 22 Dec 1965 UTC launched from the Air Force Western Test Range (AFWTR). Debris objects in space refer to the collection of defunct objects orbiting the Earth. Examples of debris include non-operational satellites, rocket bodies, and fragments generated from explosions, collisions, or faulty payload assembly.

Loading next visibility...
Identifier
1865, 1965-109B
Orbit
LEO
Country
Flag of USUS
Related business
Manufacturer
ABL
Mission
Spacecraft
Bus & Motor
ALTAIR, Unknown motor
Mass
33 kg wet, 33 kg dry
Launch date (UTC)
1965-12-22 (60 years ago)
Launch vehicle
Unknown
Launch site
Air Force Western Test Range (AFWTR)
Object type
Payload
Rocket body
Debris
Shape & HBR
Unknown
Radar Cross Section
Medium (>0.1 m² and <1 m²)

Expand to show TLE details & history
Last TLE update: 20 hours ago

TLE from 20 hours ago
0 SCOUT A R/B
1  1865U 65109B   25310.85252995  .00000180  00000-0  16412-3 0  9993
2  1865  89.0616 270.9723 0109713 297.8557  61.1527 13.76774401  3045
Epoch: 2025-11-06T20:27Z
TLE epoch observation values (Epoch: 2025-11-06T20:27:38.587Z)
Latitude
-0.00006°
Longitude
-82.24338°
Altitude
940.093 km
Speed
7.401 km/s
True Right ascension
18h 03m 53s
True Declination
0° 00' 00"
Sunlit
Object was in daylight at epoch
Visualization orbit readout
Latitude
Unknown
Longitude
Unknown
Altitude
Unknown
Speed
Unknown
Apparent Right ascension
Unknown
Apparent Declination
Unknown
Sunlit
N/A
Visualization observer readout
Local Sidereal Time
12:29:51
Azimuth
Unknown
Elevation
Unknown
Doppler factor
Unknown
Orbital elements
Apogee altitude
1,053.007 km
Perigee altitude
891.718 km
Semi-major axis
7,350.5 km
Eccentricity
0.01097
Inclination
89.0616°
RAAN
270.9723°
Arg. of periapsis
297.8557°
True anomaly
62.26117°
Mean anomaly
61.1527°
Eccentric anomaly
61.70621°
Mean motion
3.44404 °/min
Orbital period
104.53 mins
BSTAR
0.00016412
Loading maneuver chart data...
Computing Atmospheric mass density...
Loading historical data...
Loading historical data...
Loading historical data...
Loading historical data...
Loading historical data...
Loading historical data...
Loading historical data...

Documentation

Showing up to 5 results
|